Regional Weather Roundup
Issued by NWS

Home | Current Version | Previous Version | Text Only | Print | Product List | Glossary Off
Versions: 1 2 3 4 5 6 7 8 9 10 11 12 13 14 15 16 17 18 19 20 21 22 23 24 25 26 27 28 29 30 31 32 33 34 35 36 37 38 39 40 41 42 43 44 45 46 47 48 49 50

000
ASUS43 KMKX 280500
RWRWI

WISCONSIN REGIONAL WEATHER ROUNDUP
NATIONAL WEATHER SERVICE MILWAUKEE/SULLIVAN WI
1200 AM CDT WED SEP 28 2016

NOTE: "FAIR" INDICATES FEW OR NO CLOUDS BELOW 12,000 FEET WITH NO
SIGNIFICANT WEATHER AND/OR OBSTRUCTIONS TO VISIBILITY.

WIZ001-002-006>008-014>016-023>028-280600-
NORTHWEST WISCONSIN

CITY           SKY/WX    TMP DP  RH WIND       PRES   REMARKS
SUPERIOR ARPT  CLOUDY    52  48  86 N7        29.87S
ASHLAND        CLOUDY    53  48  83 NW7       29.84R
HAYWARD        CLOUDY    48  46  93 N5        29.85R
SIREN          MOCLDY    47  45  93 NW7       29.88R
CUMBERLAND     CLOUDY    46  45  93 N10       29.86R
RICE LAKE      CLOUDY    48  45  88 NW6       29.86S
CHETEK         NOT AVBL
LADYSMITH      CLOUDY    48  47  94 NW8       29.84R
EAU CLAIRE     NOT AVBL
MENOMONIE      CLOUDY    48  48 100 NW9       29.85S
NEW RICHMOND   CLOUDY    47  46  96 N8        29.88R
OSCEOLA        CLOUDY    48  48 100 N7        29.92R
$$

WIZ003>005-009-010-017-018-280600-
NORTH CENTRAL WISCONSIN

CITY           SKY/WX    TMP DP  RH WIND       PRES   REMARKS
MANITOWISH WTR NOT AVBL
ARBOR VITAE    RAIN      49  48  97 NW8       29.76S
WOODRUFF       RAIN      49  48  97 NW8       29.76S
RHINELANDER    LGT RAIN  48  48 100 NW8       29.76S FOG
EAGLE RIVER    RAIN      48  48 100 NW5       29.75R
LAND O LAKES   CLOUDY    50  49  96 N7        29.76R
PHILLIPS       CLOUDY    46  46 100 NW5       29.79S
TOMAHAWK       CLOUDY    46  45  94 NW7       29.78S
MEDFORD        CLOUDY   N/A N/A N/A NW8       29.78S
MERRILL        CLOUDY    48  47  97 NW7       29.78R
$$

WIZ029-030-035-036-043>047-280600-
CENTRAL WISCONSIN

CITY           SKY/WX    TMP DP  RH WIND       PRES   REMARKS
WAUSAU         CLOUDY    48  46  93 NW7       29.76R
MOSINEE        CLOUDY    46  46 100 NW6       29.78S
MARSHFIELD     CLOUDY    49  45  86 NW12      29.78S
STEVENS POINT  CLOUDY    47  47 100 NW5       29.78S
WAUPACA        CLOUDY    51  50  95 W7        29.77R
WAUTOMA        CLOUDY    49  47  93 NW5       29.78S
WISC RAPIDS    CLOUDY    48  48 100 NW7       29.79S
CAMP DOUGLAS   NOT AVBL
$$

WIZ011>013-019>022-031-037>040-048>050-280600-
NORTHEAST WISCONSIN

CITY           SKY/WX    TMP DP  RH WIND       PRES   REMARKS
ANTIGO         CLOUDY    47  46  98 CALM      29.75S
SHAWANO        CLOUDY    52  48  88 W3        29.75R
OCONTO         NOT AVBL
STURGEON BAY   CLOUDY    51  48  89 NW5       29.74R
GREEN BAY      CLOUDY    50  50 100 W7        29.75R
MANITOWOC      NOT AVBL
APPLETON       CLOUDY    48  48 100 W8        29.74S
CLINTONVILLE   NOT AVBL
OSHKOSH        CLOUDY    49  47  93 W7        29.76R
$$

WIZ032>034-041-042-053>061-280600-
SOUTHWEST WISCONSIN

CITY           SKY/WX    TMP DP  RH WIND       PRES   REMARKS
LA CROSSE      CLOUDY    51  47  86 N10       29.83R
SPARTA         CLOUDY    47  47  97 NW3       29.82R
VIROQUA        CLOUDY    46  46  97 NW8       29.81S
BOSCOBEL       PTCLDY    51  46  83 NW5       29.82S
PRAIRIE DU CHI CLOUDY    51  44  75 NW8       29.82R
PLATTEVILLE    MOCLDY    50  48  92 NW5       29.81S
$$

WIZ056-057-062-063-064-067-068-280600-
SOUTH CENTRAL WISCONSIN

CITY           SKY/WX    TMP DP  RH WIND       PRES   REMARKS
REEDSBURG      NOT AVBL
BARABOO/DELLS  DRIZZLE   47  46  95 W5        29.79S
LONE ROCK      NOT AVBL
MINERAL POINT  CLOUDY    50  46  87 NW3       29.80S
MADISON        LGT RAIN  48  46  93 CALM      29.78F
MIDDLETON      CLOUDY    49  49  99 W5        29.80S
WATERTOWN      DRIZZLE   48  48 100 W5        29.78S
MONROE         LGT RAIN  48  46  93 N6        29.78F
JANESVILLE     LGT RAIN  50  46  87 CALM      29.79F
$$

WIZ051-052-058>065-066-070>072-280600-
SOUTHEAST WISCONSIN

CITY           SKY/WX    TMP DP  RH WIND       PRES   REMARKS
MILWAUKEE      LGT RAIN  51  47  86 NW6       29.78F
WAUKESHA       DRIZZLE   46  45  93 W5        29.79S
MILWAUKEE/TIMM DRIZZLE   48  45  87 CALM      29.78F
RACINE         CLOUDY    51  46  83 W5        29.80F
BURLINGTON     CLOUDY    48  44  86 SW6       29.80R
KENOSHA        CLOUDY    51  46  83 SW9       29.80S
FOND DU LAC    CLOUDY    50  47  89 W7        29.77S
SHEBOYGAN      CLOUDY    50  47  89 W6        29.76R
WEST BEND      LGT RAIN  48  46  93 W5        29.77S
JUNEAU         DRIZZLE   47  47  97 SW5       29.78F
$$

LSZ147-162-280600-
LAKE SUPERIOR

STATION/POSITION TIME  TEMP    WIND        PRES    WAVE
                       AIR SEA DIR/SP/G            HT/PER
                 (UTC) (F)     (DEG/KT/KT) (MB)    (FT/S)
W MID LAKE BUOY  0350   56 52   10/ 17/ 25 1008.0R   4/ 5
DEVILS ISLAND    0400   53     340/ 20/ 23 1010.0R
SAXON HARBOR     0400   56     340/ 19/ 23 1008.8R
$$

LMZ867-665-643>646-280600-
LAKE MICHIGAN

STATION/POSITION TIME  TEMP    WIND        PRES    WAVE
                       AIR SEA DIR/SP/G            HT/PER
                 (UTC) (F)     (DEG/KT/KT) (MB)    (FT/S)
CHAMBERS ISLAND  0400   53     270/  4/  8 1006.4R
N MID LAKE BUOY  0350   56 66  300/  6/  8 1005.7R   3/ 5
NORTHPORT PIER   0400   54     290/  4/  8 1006.4
SISTER BAY       0308   55     330/ 12/ 14   N/A
KEWAUNEE LAKESHO 0400   51     290/  5/  6 1006.5R
SHEBOYGAN LAKESH 0400   51     240/  8/ 10 1007.5S
PORT WASHINGTON  0440   51     270/  4/  7 1008.8F
ATWATER BUOY     0400   52 54  270/  6/  8 1008.5R
MILWAUKEE LAKESH 0410   51     270/  5/  7   N/A
S MID LAKE BUOY  0350   57 70  330/ 12/ 14 1007.9F   3/ 5
KENOSHA   LAKESH 0400   53     290/  6/  7 1009.1R
$$

TC  - TEMPERATURE IN CELSIUS
VSB - VISIBILITY IN STATUTE MILES
WCI - WIND CHILL INDEX
HX  - HEAT INDEX





USA.gov is the U.S. government's official web portal to all federal, state and local government web resources and services.